This is the latest recevied weather packets stored in our database for station/object DB2YI-13. If no packets are shown the sender has not sent any weather packets the latest 10 day(s).
| Time | Temp. | Humidity | Pressure | Rain* | Wind** | Luminosity | Snow |
|---|---|---|---|---|---|---|---|
| 1777797002 | 18.89° C | 62% | - | 0 mm | - | - | - |
| 1777796401 | 17.22° C | 70% | - | 0 mm | - | - | - |
| 1777795801 | 16.67° C | 74% | - | 0 mm | - | - | - |
| 1777795201 | 15° C | 78% | - | 0 mm | - | - | - |
| 1777794001 | 12.78° C | 82% | - | 0 mm | - | - | - |
| 1777793401 | 12.78° C | 83% | - | 0 mm | - | - | - |
| 1777792801 | 12.22° C | 84% | - | 0 mm | - | - | - |
| 1777792201 | 11.67° C | 85% | - | 0 mm | - | - | - |
| 1777791601 | 11.67° C | 85% | - | 0 mm | - | - | - |
| 1777791001 | 11.67° C | 85% | - | 0 mm | - | - | - |
| 1777790402 | 11.11° C | 86% | - | 0 mm | - | - | - |
| 1777789801 | 10.56° C | 87% | - | 0 mm | - | - | - |
| 1777789201 | 10.56° C | 88% | - | 0 mm | - | - | - |
| 1777788602 | 10° C | 88% | - | 0 mm | - | - | - |
| 1777788001 | 10° C | 88% | - | 0 mm | - | - | - |
| 1777787401 | 10.56° C | 89% | - | 0 mm | - | - | - |
| 1777786801 | 10° C | 91% | - | 0 mm | - | - | - |
| 1777786201 | 9.44° C | 91% | - | 0 mm | - | - | - |
| 1777785001 | 8.33° C | 92% | - | 0 mm | - | - | - |
| 1777784401 | 8.33° C | 92% | - | 0 mm | - | - | - |
| 1777783201 | 7.78° C | 92% | - | 0 mm | - | - | - |
| 1777782604 | 7.78° C | 92% | - | 0 mm | - | - | - |
| 1777782003 | 7.78° C | 92% | - | 0 mm | - | - | - |
| 1777781401 | 7.22° C | 91% | - | 0 mm | - | - | - |
| 1777780801 | 7.78° C | 91% | - | 0 mm | - | - | - |
* Rain latest hour (hover to see other rain measurements)
** Current wind speed in m/s (hover to see current wind gust speed)